User: anonymous   Login
Location: Unspecified
(0.0000°N, 0.0000°E)
Time: 13:06:34
(UTC+00:00)
Language:

ASUSAT - Orbit

View from above orbital plane
View from above orbital plane
View from above satellite
View from above satellite

Ground track
Ground track

The orbit data is extracted from the following two-line orbital elements,

1 26065U 00004E   21015.46375615 -.00000006  00000-0  17868-4 0  9990
2 26065 100.1930 283.4247 0036261 218.7161 141.1420 14.36922854 99284
Epoch (UTC): 15 January 2021 11:07:48
Eccentricity: 0.0036261
inclination: 100.1930°
perigee height: 743 km
apogee height: 794 km
right ascension of ascending node: 283.4247°
argument of perigee: 218.7161°
revolutions per day: 14.36922854
mean anomaly at epoch: 141.1420°
orbit number at epoch: 9928

The dashed part of the orbit path shows where the satellite is in the earth's shadow,  

DLR